[[{"header":{"parameterUnit":"m.s-1","parameterCategory":1,"la1":30.2991,"la2":30.254,"lo1":-89.0895,"lo2":-89.0444,"dy":0.0017,"dx":0.0017,"nx":28,"ny":28,"refTime":"2025-08-19T21:00:00:Z","depth":0,"parameterNumber":2,"parameterNumberName":"U-component_of_WINDS"},"data":[0,0,0,0,0,0,0,0,0,0,0,0,0,0,0,0,0,0,0,0,0,0,0,0,0,0,0,0,0,0,0,0,0,0,0,0,0,0,0,0,0,0,0,0,0,0,0,0,0,0,0,0,0,0,0,0,0,0,1.0044,1.0046,0,1.0176,1.0178,1.0179,1.0217,1.0217,1.0216,1.0215,1.0355,1.036,1.0364,0,0,0,0,0,0,0,0,0,0,0,0,0,0.9832,0.9835,1.0044,1.0046,1.0048,1.0176,1.0178,1.0179,1.0218,1.0217,1.0216,1.0215,1.0354,1.0359,1.0364,0,0,0,0,0,0,0,0,0,0,0,0,0,0.994,0.9837,1.0044,1.0082,1.0087,1.0175,1.0178,1.018,1.0218,1.0217,1.0216,1.0215,1.0352,1.0358,1.0365,1.0427,0,0,1.0385,1.0388,0,0,0,0,0,0,0,0,0.9934,0.9948,1.0075,1.0079,1.0085,1.0179,1.0154,1.0263,1.0218,1.0168,1.0215,1.0214,1.0298,1.0309,1.0336,1.0433,1.0439,1.0386,1.039,1.0392,1.0394,0,0,0,0,0,0,0,0.9926,0.9942,1.0097,1.0077,1.0083,1.0094,1.0108,1.0175,1.0238,1.0172,1.0175,1.019,1.03,1.033,1.034,1.0442,1.0385,1.0391,1.0395,1.0398,1.0598,1.0599,0,0,0,0,0,0,0.9911,0.9936,1.0092,1.01,1.0005,1.0099,1.0115,1.015,1.0237,1.0249,1.0191,1.0192,1.0319,1.0332,1.0345,1.0423,1.0392,1.0399,1.0402,1.0597,1.0598,1.06,0,0,0,0,0,0,0.9907,0.9925,1.0087,1.0019,1.004,1.0104,1.0143,1.0153,1.0182,1.0251,1.0263,1.0209,1.0319,1.0335,1.0406,1.0428,1.0402,1.0408,1.0595,1.0597,1.0599,1.058,0,0,0,0,0,0,0.99,0.9923,0.9946,1.0019,1.0044,1.0144,1.0144,1.0157,1.0193,1.0195,1.0271,1.0282,1.0319,1.0396,1.0413,1.0437,1.0413,1.0593,1.0596,1.0598,1.0579,1.0581,1.0583,0,0,0,0,0,0.9893,0.9936,0.9946,0.9965,1.0073,1.0145,1.016,1.0199,1.0194,1.0219,1.0263,1.028,1.0424,1.0403,1.0422,1.0449,1.0592,1.0595,1.0598,1.0578,1.0581,1.0583,0,0,0,0,0,0,0.9864,0.9946,0.9959,1.0027,1.0079,1.0152,1.0183,1.0201,1.0257,1.0256,1.0305,1.0322,1.0389,1.0427,1.0402,1.0514,1.0509,1.0516,1.0487,1.049,1.0492,1.0481,1.0418,0,0,0,0,0,0.9866,0.9916,0.9986,1.0039,1.0064,1.0119,1.0152,1.0178,1.0235,1.0257,1.0307,1.0363,1.0421,1.0458,1.0515,1.0585,1.0603,1.0613,1.0615,1.0617,1.0622,1.0663,1.0668,1.061,1.061,1.061,0,0,0.987,0.9921,0.9949,1.0034,1.0078,1.013,1.0137,1.0192,1.0232,1.0267,1.0335,1.0374,1.044,1.0511,1.0545,1.0544,1.0642,1.0621,1.0621,1.0626,1.0666,1.0672,1.0677,1.0612,1.0612,1.0611,0,0,0.9903,0.9946,0.9995,1.0039,1.0104,1.0141,1.0153,1.0224,1.025,1.032,1.0347,1.0397,1.0495,1.0541,1.0577,1.063,1.0648,1.0648,1.0658,1.0697,1.0702,1.0706,1.0725,1.0731,1.0653,1.0653,1.0653,0,0.99,0.9978,1.0019,1.0073,1.011,1.0143,1.0194,1.0235,1.0316,1.0342,1.0339,1.0464,1.0511,1.0593,1.0606,1.0634,1.065,1.0638,1.0697,1.0702,1.0707,1.0725,1.0732,1.0652,1.0652,1.0652,1.0652,0,0.9971,1.0025,1.0057,1.0133,1.0175,1.0227,1.0278,1.0315,1.0339,1.0376,1.0448,1.0505,1.0574,1.0597,1.0621,1.0683,1.068,1.0687,1.0683,1.0711,1.0729,1.0737,1.0651,1.0652,1.0652,1.0652,0,0,0.9988,1.0087,1.0098,1.0133,1.0209,1.0252,1.0307,1.0374,1.0405,1.0461,1.0509,1.0592,1.0599,1.064,1.067,1.0705,1.0743,1.0708,1.071,1.0712,1.0816,1.0809,1.0817,1.0756,1.0758,1.0759,1.081,0,1.003,1.0127,1.0166,1.0245,1.0297,1.033,1.0378,1.0431,1.0468,1.0518,1.0561,1.0619,1.0624,1.0649,1.0685,1.0731,1.0765,1.0728,1.0802,1.0804,1.0783,1.0826,1.0819,1.0865,1.0818,1.0819,1.082,0,1.0091,1.0146,1.023,1.03,1.0323,1.0365,1.043,1.0478,1.0539,1.0564,1.061,1.0639,1.07,1.0692,1.0778,1.0751,1.0785,1.0813,1.0816,1.0823,1.0813,1.0834,1.088,1.0887,1.0832,1.0831,1.083,0,1.0094,1.019,1.0252,1.0282,1.0365,1.0394,1.0431,1.0491,1.0529,1.0587,1.0612,1.0677,1.0712,1.0762,1.0808,1.0799,1.089,1.0886,1.0913,1.0912,1.0929,1.0927,1.098,1.0952,1.0952,1.0952,1.0952,0,1.0136,1.0186,1.0254,1.0293,1.035,1.0397,1.0454,1.0493,1.0547,1.0595,1.0629,1.0673,1.0731,1.0784,1.0821,1.0886,1.0903,1.0925,1.0934,1.0922,1.0918,1.0943,1.0941,1.0954,1.0954,1.0953,1.0953,0,1.0148,1.0196,1.0266,1.034,1.036,1.0399,1.0463,1.0503,1.0543,1.0603,1.062,1.0683,1.0747,1.0798,1.0882,1.0907,1.0976,1.0986,1.0954,1.0958,1.0982,1.0979,1.1052,1.1064,1.1028,1.1029,1.1029,0,1.0171,1.021,1.0288,1.0322,1.0358,1.0412,1.0451,1.05,1.0539,1.0613,1.0644,1.071,1.0765,1.0867,1.0921,1.0986,1.0998,1.1019,1.1008,1.0994,1.0998,1.0994,1.0999,1.102,1.102,1.102,1.102,0,1.0207,1.0229,1.0282,1.0345,1.039,1.0442,1.0495,1.0521,1.058,1.0623,1.0688,1.0731,1.0817,1.0883,1.0954,1.0994,1.1017,1.1024,1.1033,1.102,1.0999,1.101,1.0956,1.1021,1.1021,1.1021,1.1021,1.1021,1.0225,1.0261,1.0322,1.0381,1.0426,1.0475,1.0516,1.0561,1.0615,1.0687,1.0714,1.0781,1.0844,1.0941,1.0982,1.1037,1.1038,1.1052,1.1056,1.1058,1.1056,1.0992,1.105,1.105,1.105,1.105,1.105,0,1.0261,1.0302,1.0356,1.0429,1.0476,1.0494,1.0554,1.0592,1.065,1.0706,1.076,1.0836,1.09,1.096,1.1028,1.106,1.1073,1.1076,1.1074,1.1083,1.1051,1.1035,1.1065,1.1065,1.1065,1.1065,1.1065,1.1065,1.0286,1.0348,1.0378,1.0464,1.0506,1.057,1.0603,1.0649,1.0694,1.0777,1.083,1.0868,1.0926,1.0999,1.1059,1.1076,1.1099,1.1099,1.1118,1.1087,1.1085,1.1083,1.1068,1.1104,1.1104,1.1146,1.1146,1.1146]},{"header":{"parameterUnit":"m.s-1","parameterCategory":1,"la1":30.2991,"la2":30.254,"lo1":-89.0895,"lo2":-89.0444,"dy":0.0017,"dx":0.0017,"nx":28,"ny":28,"refTime":"2025-08-19T21:00:00:Z","depth":0,"parameterNumber":3,"parameterNumberName":"V-component_of_WINDS"},"data":[0,0,0,0,0,0,0,0,0,0,0,0,0,0,0,0,0,0,0,0,0,0,0,0,0,0,0,0,0,0,0,0,0,0,0,0,0,0,0,0,0,0,0,0,0,0,0,0,0,0,0,0,0,0,0,0,0,0,4.2982,4.2982,0,4.3026,4.3026,4.3027,4.3026,4.3025,4.3025,4.3024,4.3064,4.3065,4.3067,0,0,0,0,0,0,0,0,0,0,0,0,0,4.2891,4.2893,4.2982,4.2982,4.2983,4.3026,4.3026,4.3027,4.3026,4.3025,4.3025,4.3024,4.3063,4.3065,4.3067,0,0,0,0,0,0,0,0,0,0,0,0,0,4.2932,4.2893,4.2981,4.2988,4.2989,4.3026,4.3026,4.3027,4.3026,4.3025,4.3024,4.3024,4.3063,4.3065,4.3067,4.31,0,0,4.3075,4.3076,0,0,0,0,0,0,0,0,4.293,4.2935,4.2986,4.2987,4.2988,4.302,4.3009,4.3051,4.3026,4.3012,4.3024,4.3023,4.3049,4.3053,4.3063,4.3101,4.3103,4.3075,4.3076,4.3077,4.3078,0,0,0,0,0,0,0,4.2927,4.2933,4.2999,4.2987,4.2988,4.2986,4.2991,4.3017,4.3035,4.3013,4.3013,4.3018,4.305,4.3061,4.3064,4.3104,4.3075,4.3077,4.3078,4.3079,4.317,4.3171,0,0,0,0,0,0,4.2924,4.2931,4.2997,4.3,4.2957,4.2989,4.2994,4.301,4.3034,4.3037,4.3019,4.3018,4.3057,4.3061,4.3065,4.3104,4.3077,4.308,4.3081,4.3169,4.317,4.3171,0,0,0,0,0,0,4.2922,4.293,4.2996,4.2966,4.2974,4.2991,4.3009,4.3012,4.3022,4.3039,4.3042,4.3027,4.3056,4.3062,4.3091,4.3105,4.3081,4.3083,4.3168,4.3169,4.3171,4.3181,0,0,0,0,0,0,4.2919,4.2929,4.2942,4.2966,4.2976,4.3023,4.301,4.3013,4.3027,4.3026,4.3048,4.305,4.3056,4.3088,4.3094,4.3108,4.3085,4.3167,4.3169,4.317,4.318,4.3183,4.3186,0,0,0,0,0,4.2916,4.2942,4.2943,4.2951,4.2993,4.3023,4.3029,4.3037,4.3028,4.3041,4.3052,4.3049,4.3103,4.3091,4.3097,4.3112,4.3166,4.3168,4.317,4.3178,4.3182,4.3186,0,0,0,0,0,0,4.2917,4.2946,4.2947,4.2982,4.3001,4.3023,4.304,4.3041,4.306,4.3058,4.3066,4.307,4.31,4.3109,4.3095,4.3145,4.3133,4.3137,4.3137,4.3141,4.3144,4.314,4.3087,0,0,0,0,0,4.2923,4.2947,4.2969,4.2998,4.3008,4.3022,4.3036,4.304,4.3059,4.3066,4.3079,4.3096,4.3116,4.3129,4.3149,4.3182,4.3185,4.3195,4.3198,4.3201,4.3203,4.322,4.3224,4.3178,4.3178,4.3178,0,0,4.2932,4.295,4.2965,4.2999,4.3014,4.3037,4.3029,4.3053,4.3069,4.3069,4.3098,4.3108,4.3127,4.3158,4.3172,4.3167,4.3217,4.3204,4.3205,4.3206,4.3223,4.3227,4.3231,4.318,4.318,4.3179,0,0,4.2961,4.2978,4.3004,4.302,4.3043,4.3053,4.3059,4.3082,4.3089,4.3119,4.3119,4.3138,4.3173,4.3187,4.3198,4.3233,4.3231,4.3239,4.3254,4.327,4.3274,4.3277,4.3288,4.3292,4.3242,4.3242,4.3242,0,4.2969,4.3005,4.3016,4.3042,4.3056,4.3059,4.3084,4.3098,4.3126,4.3135,4.313,4.3174,4.3187,4.3221,4.323,4.3239,4.3245,4.3236,4.3273,4.3276,4.3279,4.329,4.3294,4.3243,4.3243,4.3243,4.3243,0,4.3013,4.3039,4.3056,4.3085,4.3102,4.3127,4.314,4.3155,4.3159,4.3169,4.3198,4.3215,4.3237,4.3246,4.3249,4.328,4.3276,4.3272,4.326,4.3284,4.3294,4.3298,4.3244,4.3244,4.3244,4.3243,0,0,4.3042,4.3079,4.3085,4.3098,4.3125,4.3144,4.3168,4.3193,4.3205,4.3224,4.3244,4.3274,4.3271,4.3284,4.3288,4.3303,4.3328,4.3297,4.3297,4.3301,4.3362,4.3363,4.3368,4.3328,4.3329,4.3329,4.3359,0,4.3073,4.3119,4.313,4.3168,4.3191,4.3195,4.3216,4.3234,4.3244,4.3263,4.3273,4.3295,4.3289,4.3297,4.3312,4.3322,4.334,4.332,4.3344,4.3344,4.3337,4.3374,4.3376,4.3403,4.3364,4.3364,4.3365,0,4.3114,4.3136,4.3178,4.3202,4.3211,4.3231,4.3254,4.3273,4.3293,4.3299,4.3314,4.3318,4.3342,4.333,4.3363,4.3349,4.3359,4.3366,4.3367,4.3368,4.3355,4.3374,4.3412,4.3416,4.3371,4.3371,4.337,0,4.3129,4.317,4.32,4.3211,4.324,4.3253,4.3265,4.3285,4.3299,4.3319,4.3327,4.3349,4.3361,4.3377,4.3385,4.3377,4.3416,4.3406,4.342,4.342,4.3427,4.3426,4.3466,4.3437,4.3436,4.3436,4.3436,0,4.3161,4.3185,4.3207,4.3225,4.3252,4.3265,4.329,4.3303,4.332,4.3339,4.3344,4.3361,4.3373,4.3391,4.3398,4.3423,4.3428,4.3432,4.3433,4.3431,4.343,4.3436,4.3434,4.3438,4.3437,4.3437,4.3437,0,4.3181,4.3197,4.323,4.3256,4.3263,4.3281,4.3302,4.3319,4.333,4.3354,4.3361,4.3377,4.3399,4.341,4.3437,4.3442,4.3469,4.347,4.3463,4.3463,4.3476,4.3474,4.352,4.3526,4.3494,4.3495,4.3495,0,4.32,4.3219,4.3248,4.3262,4.3275,4.3298,4.3313,4.3326,4.3341,4.3365,4.3379,4.3402,4.342,4.3455,4.3468,4.3489,4.3489,4.3504,4.3492,4.3489,4.3487,4.3485,4.3487,4.3505,4.3505,4.3506,4.3506,0,4.323,4.3237,4.326,4.3285,4.3303,4.3323,4.3343,4.3354,4.3369,4.3386,4.341,4.3425,4.3453,4.3475,4.3497,4.3508,4.3509,4.351,4.3514,4.3511,4.3505,4.3507,4.3467,4.3508,4.3508,4.3508,4.3508,4.3508,4.3249,4.3266,4.3289,4.3314,4.3331,4.3349,4.3366,4.338,4.3401,4.3427,4.3433,4.3458,4.3476,4.3506,4.3518,4.3536,4.3532,4.3539,4.354,4.3541,4.3541,4.3504,4.354,4.354,4.354,4.354,4.354,0,4.3278,4.3294,4.3317,4.3345,4.3364,4.3367,4.3389,4.3404,4.3426,4.3445,4.3464,4.3491,4.3513,4.3528,4.355,4.3561,4.3562,4.3566,4.3565,4.3567,4.3543,4.3537,4.3565,4.3565,4.3565,4.3565,4.3565,4.3565,4.3295,4.3325,4.3335,4.3372,4.3387,4.3413,4.3425,4.3441,4.3456,4.3487,4.3506,4.3517,4.3533,4.3557,4.3576,4.358,4.3587,4.3591,4.3594,4.3571,4.3569,4.3566,4.356,4.3592,4.3592,4.3616,4.3616,4.3616]}]]